Location: Lichtensteig
(47.3376°N, 9.0841°E)
Time: 08:53:47
(UTC+00:00)

Meteor 1-5 Rocket - Pass Details

Date: 03 March 2021
Orbit: 790 x 914 km, 81.2° (Epoch: 13 April)

Event Time Altitude Azimuth Distance (km) Brightness Sun altitude
Rises 18:30:36 0° 176° (S) 3,286 7.2 -14.1°
Reaches altitude 10° 18:32:59 10° 172° (S) 2,370 6.4 -14.5°
Maximum altitude 18:38:12 57° 95° (E) 959 4.1 -15.4°
Drops below altitude 10° 18:43:36 10° 19° (NNE) 2,453 6.5 -16.3°
Sets 18:46:05 0° 15° (NNE) 3,411 7.3 -16.7°
